Zurück zum Katalog

COSMOS 2074

AktivNavigationPO
NORAD 20577·PAYLOAD·🇷🇺 Russia

Gestartet Apr 20, 1990 von Plesetsk Cosmodrome

Loading…

Nächste Überflüge (nächste 24 Stunden)

TLE

AktuellSource: Space-Track

Epoche: Sep 14, 2026, 15:38 UTC

1 20577U 90036A   26257.65186466  .00000044  00000-0  30484-4 0  9994
2 20577  82.9433  39.9303 0025991 320.4399  49.8228 13.74887736826020

Verfolge COSMOS 2074 in Echtzeit mit AllMySat

Download on the App Store